Weather History for Columbia Airport, CA

Change the Weather History Date:

Wednesday, April 30, 2014

  Actual Average (KMOD) Record (KMOD)
Temperature  
Mean Temperature 63 °F -  
Max Temperature 82 °F 79 °F 100 °F (1981)
Min Temperature 44 °F 52 °F 36 °F (1967)
Degree Days  
Heating Degree Days 2 2  
Month to date heating degree days 130  
Since 1 July heating degree days 2134  
Cooling Degree Days 0 3  
Month to date cooling degree days 39  
Year to date cooling degree days 44  
Growing Degree Days 13 (Base 50)    
Moisture  
Dew Point 42 °F    
Average Humidity 50    
Maximum Humidity 87    
Minimum Humidity 20    
Precipitation  
Precipitation 0.00 in 0.03 in 0.64 in (1935)
Month to date precipitation 0.97  
Year to date precipitation 8.00  
Since 1 July precipitation 12.36  
Snow  
Snow 0.00 in - - ()
Month to date snowfall  
Since 1 July snowfall  
Snow Depth -    
Sea Level Pressure  
Sea Level Pressure 30.13 in    
Wind  
Wind Speed 2 mph (ENE)    
Max Wind Speed 7 mph    
Max Gust Speed -    
Visibility 10 miles    
Events      
T = Trace of Precipitation, MM = Missing Value Source: NWS Daily Summary

Daily Weather History Graph

Daily Weather History Graph

Search for Another Location

Airport:

Trip Planner

Search our weather history database for the weather conditions in past years. The results will help you decide how hot, cold, wet, or windy it might be!

Date:

Astronomy

Apr. 30, 2014 Rise Set
Actual Time 6:06 AM PDT 7:51 PM PDT
Civil Twilight 5:38 AM PDT 8:20 PM PDT
Nautical Twilight 5:04 AM PDT 8:54 PM PDT
Astronomical Twilight 4:27 AM PDT 9:31 PM PDT
Moon 7:12 AM PDT (4/30) 9:34 PM PDT (4/30)
Length of Visible Light 14h 41m
Length of Day
13h 45m
Waxing Crescent, 3% of the Moon is Illuminated
Apr 30
Waxing Crescent
May 6
First Quarter
May 14
Full
May 21
Last Quarter
May 28
New

Hourly Weather History & Observations

Time (PDT) Temp. Dew Point Humidity Pressure Visibility Wind Dir Wind Speed Gust Speed Precip Events Conditions
12:15 AM 48.2 °F 44.6 °F 87% 30.14 in 10.0 mi Calm Calm - N/A   Clear
12:35 AM 46.4 °F 42.8 °F 87% 30.14 in 10.0 mi Calm Calm - N/A   Clear
12:55 AM 46.4 °F 41.0 °F 81% 30.14 in 10.0 mi Calm Calm - N/A   Clear
1:15 AM 48.2 °F 39.2 °F 71% 30.14 in 10.0 mi NNE 3.5 mph - N/A   Clear
1:35 AM 48.2 °F 39.2 °F 71% 30.14 in 10.0 mi NNE 3.5 mph - N/A   Clear
1:55 AM 48.2 °F 37.4 °F 66% 30.14 in 10.0 mi Calm Calm - N/A   Clear
2:15 AM 48.2 °F 37.4 °F 66% 30.14 in 10.0 mi Calm Calm - N/A   Clear
2:35 AM 48.2 °F 37.4 °F 66% 30.13 in 10.0 mi Calm Calm - N/A   Clear
2:55 AM 48.2 °F 37.4 °F 66% 30.13 in 10.0 mi Calm Calm - N/A   Clear
3:15 AM 46.4 °F 37.4 °F 71% 30.13 in 10.0 mi Calm Calm - N/A   Clear
3:55 AM 46.4 °F 37.4 °F 71% 30.13 in 10.0 mi Calm Calm - N/A   Clear
4:15 AM 46.4 °F 35.6 °F 66% 30.13 in 10.0 mi Calm Calm - N/A   Clear
4:35 AM 46.4 °F 37.4 °F 71% 30.13 in 10.0 mi Calm Calm - N/A   Clear
4:55 AM 46.4 °F 37.4 °F 71% 30.13 in 10.0 mi Calm Calm - N/A   Clear
5:15 AM 46.4 °F 37.4 °F 71% 30.14 in 10.0 mi Calm Calm - N/A   Clear
5:35 AM 44.6 °F 37.4 °F 76% 30.14 in 10.0 mi Calm Calm - N/A   Clear
5:55 AM 44.6 °F 37.4 °F 76% 30.14 in 10.0 mi Calm Calm - N/A   Clear
6:15 AM 44.6 °F 37.4 °F 76% 30.14 in 10.0 mi Calm Calm - N/A   Clear
6:35 AM 46.4 °F 37.4 °F 71% 30.15 in 10.0 mi Calm Calm - N/A   Clear
6:55 AM 48.2 °F 39.2 °F 71% 30.15 in 10.0 mi Calm Calm - N/A   Clear
7:15 AM 53.6 °F 41.0 °F 62% 30.16 in 10.0 mi Calm Calm - N/A   Clear
7:35 AM 57.2 °F 42.8 °F 59% 30.16 in 10.0 mi Calm Calm - N/A   Clear
7:55 AM 62.6 °F 46.4 °F 55% 30.15 in 10.0 mi Calm Calm - N/A   Clear
8:15 AM 64.4 °F 48.2 °F 56% 30.16 in 10.0 mi Calm Calm - N/A   Clear
8:35 AM 69.8 °F 39.2 °F 33% 30.16 in 10.0 mi Calm Calm - N/A   Clear
8:55 AM 71.6 °F 35.6 °F 27% 30.16 in 10.0 mi ENE 3.5 mph - N/A   Clear
9:15 AM 73.4 °F 33.8 °F 23% 30.16 in 10.0 mi Calm Calm - N/A   Clear
9:35 AM 75.2 °F 32.0 °F 21% 30.16 in 10.0 mi ENE 4.6 mph - N/A   Clear
9:55 AM 75.2 °F 37.4 °F 25% 30.17 in 10.0 mi ENE 6.9 mph - N/A   Clear
10:15 AM 75.2 °F 39.2 °F 27% 30.17 in 10.0 mi ENE 4.6 mph - N/A   Clear
10:35 AM 77.0 °F 41.0 °F 28% 30.17 in 10.0 mi ENE 4.6 mph - N/A   Clear
10:55 AM 77.0 °F 39.2 °F 26% 30.17 in 10.0 mi ENE 4.6 mph - N/A   Clear
11:15 AM 78.8 °F 41.0 °F 26% 30.17 in 10.0 mi ENE 4.6 mph - N/A   Clear
11:35 AM 77.0 °F 41.0 °F 28% 30.16 in 10.0 mi NE 5.8 mph - N/A   Clear
11:55 AM 80.6 °F 41.0 °F 24% 30.16 in 10.0 mi ENE 3.5 mph - N/A   Clear
12:15 PM 80.6 °F 41.0 °F 24% 30.15 in 10.0 mi ENE 4.6 mph - N/A   Clear
12:35 PM 82.4 °F 42.8 °F 25% 30.15 in 10.0 mi ENE 5.8 mph - N/A   Clear
12:55 PM 82.4 °F 39.2 °F 21% 30.15 in 10.0 mi ENE 6.9 mph - N/A   Clear
1:15 PM 82.4 °F 39.2 °F 21% 30.15 in 10.0 mi ENE 5.8 mph - N/A   Clear
1:55 PM 82.4 °F 37.4 °F 20% 30.14 in 10.0 mi Calm Calm - N/A   Clear
2:15 PM 82.4 °F 42.8 °F 25% 30.14 in 10.0 mi ENE 3.5 mph - N/A   Clear
2:35 PM 82.4 °F 42.8 °F 25% 30.13 in 10.0 mi East 5.8 mph - N/A   Clear
2:55 PM 82.4 °F 44.6 °F 26% 30.13 in 10.0 mi East 5.8 mph - N/A   Clear
3:15 PM 82.4 °F 39.2 °F 21% 30.12 in 10.0 mi ENE 5.8 mph - N/A   Clear
3:35 PM 82.4 °F 39.2 °F 21% 30.11 in 10.0 mi East 6.9 mph - N/A   Clear
3:55 PM 82.4 °F 41.0 °F 23% 30.11 in 10.0 mi ENE 6.9 mph - N/A   Clear
4:15 PM 82.4 °F 41.0 °F 23% 30.10 in 10.0 mi ENE 5.8 mph - N/A   Clear
4:35 PM 82.4 °F 39.2 °F 21% 30.10 in 10.0 mi ENE 5.8 mph - N/A   Clear
4:55 PM 82.4 °F 42.8 °F 25% 30.10 in 10.0 mi East 4.6 mph - N/A   Clear
5:15 PM 80.6 °F 42.8 °F 26% 30.09 in 10.0 mi ENE 5.8 mph - N/A   Clear
5:35 PM 80.6 °F 44.6 °F 28% 30.09 in 10.0 mi ENE 6.9 mph - N/A   Clear
5:55 PM 80.6 °F 44.6 °F 28% 30.09 in 10.0 mi East 3.5 mph - N/A   Clear
6:15 PM 78.8 °F 46.4 °F 32% 30.09 in 10.0 mi East 5.8 mph - N/A   Clear
6:35 PM 77.0 °F 48.2 °F 36% 30.09 in 10.0 mi Calm Calm - N/A   Clear
6:55 PM 75.2 °F 48.2 °F 38% 30.09 in 10.0 mi Calm Calm - N/A   Clear
7:15 PM 71.6 °F 48.2 °F 43% 30.09 in 10.0 mi Calm Calm - N/A   Clear
7:35 PM 68.0 °F 50.0 °F 52% 30.09 in 10.0 mi Calm Calm - N/A   Clear
7:55 PM 66.2 °F 50.0 °F 56% 30.10 in 10.0 mi NNE 3.5 mph - N/A   Clear
8:15 PM 64.4 °F 50.0 °F 59% 30.10 in 10.0 mi NNE 4.6 mph - N/A   Clear
8:35 PM 62.6 °F 50.0 °F 63% 30.10 in 10.0 mi Calm Calm - N/A   Clear
8:55 PM 60.8 °F 50.0 °F 68% 30.11 in 10.0 mi NNE 3.5 mph - N/A   Clear
9:15 PM 59.0 °F 50.0 °F 72% 30.11 in 10.0 mi NNE 4.6 mph - N/A   Clear
9:35 PM 57.2 °F 50.0 °F 77% 30.12 in 10.0 mi NNE 3.5 mph - N/A   Clear
9:55 PM 57.2 °F 48.2 °F 72% 30.12 in 10.0 mi Calm Calm - N/A   Clear
10:15 PM 57.2 °F 48.2 °F 72% 30.11 in 10.0 mi Calm Calm - N/A   Clear
10:35 PM 57.2 °F 48.2 °F 72% 30.11 in 10.0 mi NNE 3.5 mph - N/A   Clear
10:55 PM 57.2 °F 48.2 °F 72% 30.11 in 10.0 mi Calm Calm - N/A   Clear
11:15 PM 57.2 °F 48.2 °F 72% 30.11 in 10.0 mi Calm Calm - N/A   Clear
11:35 PM 55.4 °F 48.2 °F 77% 30.11 in 10.0 mi Calm Calm - N/A   Clear
11:55 PM 53.6 °F 48.2 °F 82% 30.11 in 10.0 mi Calm Calm - N/A   Clear